{"data":{"norad_id":45100,"intl_designator":"2020-006BJ","name":"STARLINK-1193","alt_names":[],"object_type":"PAYLOAD","status":"ACTIVE","operator":null,"country":"US","launch_date":"2020-01-29","launch_site_code":"AFETR","launch_vehicle":null,"mission":null,"orbit_class":"UNKNOWN","rcs_meters":null,"size_class":null,"mass_kg":null,"dimensions":null,"purposes":["comms"],"wikipedia_slug":null,"has_3d_model":false,"image_url":null,"decayed_at":null,"tle_current":{"epoch":"2026-09-19T19:05:48.009984Z","epoch_age_seconds":75207,"freshness":"FRESH","line1":"1 45100U 20006BJ  26262.79569456  .00080221  00000+0  40924-3 0  9991","line2":"2 45100  53.0434 352.7296 0005122 320.7042  39.3607 15.80693055367717","mean_motion":15.80693055,"eccentricity":0.0005122,"inclination_deg":53.0434,"raan_deg":352.7296,"arg_perigee_deg":320.7042,"mean_anomaly_deg":39.3607,"bstar":0.00040924,"rev_number":36771,"period_min":91.099280498832,"perigee_km":325.04444517745,"apogee_km":331.91470319604,"semimajor_km":6706.6165741867,"source":"CELESTRAK","updated_at":"2026-09-20T09:00:38.225612Z"}}}